Location: Del Amo
(33.8464°N, 118.2104°W)
Time: 07:19:35
(UTC+00:00)

Vanguard 3 - Pass Details

Date: 18 September 2024
Orbit: 507 x 3223 km, 33.3° (Epoch: 09 October)

Event Time Altitude Azimuth Distance (km) Brightness Sun altitude
Rises 19:06:46 0° 285° (WNW) 7,151 11.8 56.3°
Reaches altitude 10° 19:11:54 10° 283° (WNW) 6,003 11.5 56.6°
Maximum altitude 19:29:16 58° 211° (SSW) 2,631 11.4 57.3°
Drops below altitude 10° 19:39:59 10° 134° (SE) 3,866 11.1 57.6°
Sets 19:42:34 0° 130° (SE) 4,550 11.3 57.6°
